Regional Weather Roundup
Issued by NWS Upton, NY

Current Version | Previous Version | Text Only | Print | Product List | Glossary On
Versions: 1 2 3 4 5 6 7 8 9 10 11 12 13 14 15 16 17 18 19 20 21 22 23 24 25 26 27 28 29 30 31 32 33 34 35 36 37 38 39 40 41 42 43 44 45 46 47 48 49 50
133 ASUS41 KOKX 230308 RWROKX REGIONAL WEATHER ROUNDUP NATIONAL WEATHER SERVICE NEW YORK NY 1000 PM EST WED NOV 22 2017 NOTE: "FAIR" INDICATES FEW OR NO CLOUDS BELOW 12,000 FEET WITH NO SIGNIFICANT WEATHER AND/OR OBSTRUCTIONS TO VISIBILITY. NYZ071-072-176-178-NJZ106-104-230400- NEW YORK CITY METRO AREA CITY SKY/WX TMP DP RH WIND PRES REMARKS Central Park CLEAR 37 21 52 NW15G24 30.09R WCI 28 Bronx Bot Gard N/A 36 21 55 NW2 30.06R Bronx Lehman C N/A 36 32 87 W12 N/A WCI 27 LaGuardia APRT CLEAR 39 24 55 NW18 30.06R WCI 30 Queens College N/A 37 32 81 NW15 N/A WCI 28 Kennedy INTL PTCLDY 37 23 56 NW16G25 30.08R WCI 28 Breezy Point N/A 36 N/A N/A NW16G28 N/A WCI 26 Brooklyn Coll N/A 37 32 81 NW12 N/A WCI 30 Staten Island N/A 36 32 87 NW8 N/A WCI 29 Newark/Liberty PTCLDY 37 21 52 NW21 30.09R WCI 26 Teterboro CLEAR 37 21 52 NW13G24 30.07R WCI 29 $$ NYZ177-179-078>081-230400- LONG ISLAND NEW YORK CITY SKY/WX TMP DP RH WIND PRES REMARKS Jones Beach N/A 39 N/A N/A NW18G25 N/A WCI 30 Wantagh N/A 37 32 81 W10 N/A WCI 30 Matinecock PT N/A 39 N/A N/A NW22G29 N/A WCI 29 Farmingdale CLEAR 38 25 59 NW10 30.04R WCI 31 MacArthur/ISP PTCLDY 40 25 55 NW17G26 30.02R WCI 31 Shirley MOCLDY 40 28 62 NW7 30.02R Mt Sinai Harb N/A N/A N/A N/A NW10G16 N/A Westhampton MOCLDY 40 25 55 NW15G22 30.02R WCI 32 East Hampton FAIR 38 26 61 NW15G26 29.99R WCI 30 Southold N/A 39 32 75 NW20G31 N/A WCI 30 Montauk NOT AVBL $$ NYZ052-065-067-230400- HUDSON VALLEY CITY SKY/WX TMP DP RH WIND PRES REMARKS White Plains CLEAR 36 21 54 NW15G22 30.02R WCI 27 Larchmont Harb N/A 37 N/A N/A W10G18 N/A WCI 30 Croton On Huds N/A 37 N/A N/A NW12 N/A WCI 30 Somers N/A 34 32 93 NW6 N/A WCI 29 Brewster N/A 34 32 93 NW9 N/A WCI 26 Newburgh MOCLDY 36 23 60 NW9 30.05S WCI 29 Montgomery MOCLDY 35 21 56 NW12G17 30.06R WCI 27 Suffern N/A 34 32 93 NW6 N/A WCI 29 Poughkeepsie CLOUDY 37 22 54 NW7 30.05R WCI 32 Albany CLOUDY 35 20 54 NW18G30 30.07S WCI 24 $$ NJZ001-105-106-008-010-013-015-019>022-104-230400- NEW JERSEY CITY SKY/WX TMP DP RH WIND PRES REMARKS Newark/Liberty PTCLDY 37 21 52 NW21 30.09R WCI 26 Teterboro CLEAR 37 21 52 NW13G24 30.07R WCI 29 Caldwell FLURRIES 35 20 54 N9 30.10R WCI 28 Somerville CLEAR 37 22 54 NW9G20 30.08R WCI 30 Linden FAIR 36 21 55 NW9G18 30.09R WCI 29 Perth Amboy N/A 37 N/A N/A NW15G21 N/A WCI 28 Sussex CLOUDY 34 20 56 NW9G22 30.09R WCI 27 Andover NOT AVBL Trenton CLEAR 36 23 59 NW7 30.10R WCI 30 Millville CLEAR 39 27 62 NW8 30.12R WCI 33 Atlantic City CLEAR 39 27 62 NW14 30.09R WCI 31 Wrightstown PTCLDY 36 24 61 NW9 30.08R WCI 29 Toms River PTCLDY 37 24 59 NW13G22 30.10R WCI 29 Belmar CLEAR 36 24 62 NW12G21 30.09R WCI 28 $$ PAZ047>061-062-071-230400- EASTERN PENNSYLVANIA CITY SKY/WX TMP DP RH WIND PRES REMARKS Philadelphia PTCLDY 40 22 48 NW10 30.14R WCI 33 Allentown CLOUDY 36 21 54 NW9 30.12R WCI 29 Scranton CLOUDY 32 19 58 N14G20 30.12S WCI 22 $$ CTZ002-004>006-009-010-012-RIZ004-006-007-MAZ004-011-015-230400- SOUTHERN NEW ENGLAND IN CT CITY SKY/WX TMP DP RH WIND PRES REMARKS Bradley INTL MOCLDY 38 25 59 N9G20 29.98R WCI 31 Hartford CLOUDY 40 24 53 NW13G20 30.00R WCI 32 Danbury PTCLDY 37 24 59 NW10G16 30.03R WCI 30 Wtrbury/Oxford MOCLDY 35 23 61 NW8G22 29.99R WCI 29 Norwalk Harbor N/A 37 N/A N/A W10 N/A WCI 30 Bridgeport CLOUDY 40 25 55 NW13 30.02R WCI 32 Meriden CLEAR 37 23 56 NW13G20 30.01R WCI 29 New Haven PTCLDY 39 24 55 NW9 30.01R WCI 33 Chester MOCLDY 37 25 60 NW15G22 29.97R WCI 28 Groton PTCLDY 39 27 62 NW10G23 29.96R WCI 32 Wilimantic CLOUDY 40 28 62 W6 29.97R IN RI CITY SKY/WX TMP DP RH WIND PRES REMARKS Providence PTCLDY 40 29 64 NW8G20 29.93R WCI 34 Block Island CLEAR 40 30 67 NW16G26 29.95R WCI 31 Westerly PTCLDY 39 30 70 VRB5 29.96R IN MA CITY SKY/WX TMP DP RH WIND PRES REMARKS Boston PTCLDY 39 30 70 NW16G24 29.89R WCI 30 Worcester CLOUDY 35 26 69 NW12G22 29.89R WCI 27 Westfield CLOUDY 38 27 64 NW12 29.97R WCI 30 Provincetown CLOUDY 42 34 73 NW29G38 29.86R Nantucket PTCLDY 41 36 82 NW26G39 29.85R $$ ANZ330-335-338-340-345-350-353-355-230400- COASTAL MARINE OBSERVATIONS STATION/POSITION TIME SKY/WX TEMP WIND PRES VSBY WAVE AIR SEA DIR/SP/G HT/PER (UTC) (F) (DEG/KT/KT) (MB) (MI) (FT/S) NY HARB ENTRANCE 0150 42 57 310/ 19/ 25 1016.7 4/ 5 20 S FIRE ISLAND 0150 44 56 320/ 21/ 27 1016.2 5/ 6 GREAT SOUTH BAY 0230 41 45 310/ 12/ 16 N/A HUDSON CANYON 0150 48 59 330/ 23/ 27 1014.8 10/ 7 KINGS POINT 0230 40 50 360/ 16/ 19 1018.7 EXECUTION ROCKS 0215 41 300/ 16/ 23 N/A WESTERN LI SOUND 0149 42 300/ 17/ 25 N/A 1/ 2 CENTRAL LI SOUND NOT AVBL ROBBINS REEF 0230 38 320/ 19/ 25 1019.1 $$ >>>>>>>>>>>>>>>>>>>>>>>>>>>> KEY <<<<<<<<<<<<<<<<<<<<<<<<<<< > < > SKY/WX - Sky Condition/Present Weather < > TMP - Temperature in Fahrenheit < > DP - Dew Point in Fahrenheit < > RH - Relative Humidity in Percent < > WIND - Direction (from) and Speed in MPH < > PRES - Mean Sea Level Pressure (inches of Hg) < > WCI - Wind Chill Index < > VSB - VISIBILITY IN MILES < > HX - HEAT INDEX < > TC - TEMPERATURE IN CELSIUS < > VRB - VARIABLE WIND DIRECTION < > < >>>>>>>>>>>>>>>>>>>>>>>>>>>> KEY <<<<<<<<<<<<<<<<<<<<<<<<<<<

USA.gov is the U.S. government's official web portal to all federal, state and local government web resources and services.